Weather History for Alamosa, CO

Change the Weather History Date:

Wednesday, April 10, 2013

  Actual Average Record
Temperature  
Mean Temperature 32 °F 40 °F  
Max Temperature 40 °F 58 °F 75 °F (2012)
Min Temperature 23 °F 23 °F 9 °F (1951)
Degree Days  
Heating Degree Days 33 25  
Month to date heating degree days 236 260  
Since 1 July heating degree days 7982 7566  
Cooling Degree Days 0 0  
Month to date cooling degree days 0 0  
Year to date cooling degree days 0 0  
Moisture  
Dew Point 22 °F    
Average Humidity 68    
Maximum Humidity 88    
Minimum Humidity 47    
Precipitation  
Precipitation 0.04 in 0.02 in 0.45 in (2005)
Month to date precipitation 0.20 0.19  
Year to date precipitation 0.76 1.24  
Snow  
Snow 0.00 in 0.10 in 3.70 in (2005)
Month to date snowfall 1.5 1.5  
Since 1 July snowfall 20.4 24.6  
Snow Depth 0.00 in    
Sea Level Pressure  
Sea Level Pressure 29.88 in    
Wind  
Wind Speed 8 mph (North)    
Max Wind Speed 21 mph    
Max Gust Speed 26 mph    
Visibility 8 miles    
Events Snow    
T = Trace of Precipitation, MM = Missing Value Source: NWS Daily Summary

Daily Weather History Graph

Daily Weather History Graph

Search for Another Location

Airport:

Trip Planner

Search our weather history database for the weather conditions in past years. The results will help you decide how hot, cold, wet, or windy it might be!

Date:

Astronomy

Apr. 10, 2013 Rise Set
Actual Time 6:35 AM MDT 7:34 PM MDT
Civil Twilight 6:08 AM MDT 8:01 PM MDT
Nautical Twilight 5:36 AM MDT 8:33 PM MDT
Astronomical Twilight 5:04 AM MDT 9:06 PM MDT
Moon 6:33 AM MDT (4/10) 8:11 PM MDT (4/10)
Length of Visible Light 13h 52m
Length of Day
12h 59m
New Moon, 0% of the Moon is Illuminated
Apr 10
New Moon
Apr 18
First Quarter
Apr 25
Full
May 2
Last Quarter
May 9
New

Hourly Weather History & Observations

Time (MDT) Temp. Windchill Dew Point Humidity Pressure Visibility Wind Dir Wind Speed Gust Speed Precip Events Conditions
12:52 AM 25.0 °F 17.1 °F 21.0 °F 85% 29.88 in 10.0 mi North 6.9 mph - N/A   Overcast
1:52 AM 25.0 °F 18.1 °F 19.9 °F 81% 29.86 in 10.0 mi North 5.8 mph - N/A   Overcast
2:52 AM 25.0 °F 20.7 °F 21.0 °F 85% 29.83 in 10.0 mi North 3.5 mph - N/A   Overcast
3:52 AM 25.0 °F 19.3 °F 21.9 °F 88% 29.85 in 10.0 mi NNW 4.6 mph - N/A   Overcast
4:14 AM 24.8 °F 20.5 °F 21.2 °F 86% 29.82 in 10.0 mi North 3.5 mph - N/A   Overcast
4:52 AM 25.0 °F - 21.9 °F 88% 29.88 in 10.0 mi Calm Calm - N/A   Overcast
5:43 AM 24.8 °F 20.5 °F 21.2 °F 86% 29.83 in 8.0 mi NNE 3.5 mph - 0.00 in   Overcast
5:52 AM 25.0 °F 20.7 °F 21.9 °F 88% 29.89 in 9.0 mi NNE 3.5 mph - 0.00 in   Overcast
6:01 AM 24.8 °F 16.9 °F 21.2 °F 86% 29.83 in 6.0 mi North 6.9 mph - 0.00 in Snow Light Snow
6:40 AM 24.8 °F 14.0 °F 21.2 °F 86% 29.85 in 2.0 mi North 11.5 mph - 0.01 in Snow Light Snow
6:52 AM 24.1 °F 16.0 °F 21.0 °F 88% 29.94 in 3.0 mi North 6.9 mph - 0.01 in Snow Light Snow
6:59 AM 24.8 °F 17.9 °F 21.2 °F 86% 29.86 in 1.8 mi NNE 5.8 mph - 0.00 in Snow Light Snow
7:52 AM 23.0 °F 13.9 °F 19.9 °F 88% 29.97 in 1.0 mi NE 8.1 mph - 0.01 in Snow Light Snow
8:17 AM 24.8 °F 15.3 °F 21.2 °F 86% 29.88 in 1.8 mi NE 9.2 mph - 0.01 in Snow Light Snow
8:26 AM 24.8 °F 12.9 °F 21.2 °F 86% 29.88 in 2.0 mi NNE 13.8 mph - 0.01 in Snow Light Snow
8:31 AM 24.8 °F 13.4 °F 19.4 °F 80% 29.88 in 3.0 mi NNE 12.7 mph - 0.01 in Snow Light Snow
8:44 AM 24.8 °F 13.4 °F 19.4 °F 80% 29.88 in 5.0 mi NNE 12.7 mph - 0.01 in Snow Light Snow
8:52 AM 26.1 °F 15.0 °F 19.0 °F 75% 29.97 in 3.0 mi NNE 12.7 mph - 0.01 in Snow Light Snow
9:28 AM 26.6 °F 16.8 °F 19.4 °F 74% 29.89 in 2.0 mi NNE 10.4 mph - 0.00 in Snow Light Snow
9:52 AM 27.0 °F 18.7 °F 21.0 °F 78% 29.96 in 2.5 mi NE 8.1 mph - 0.01 in Snow Light Snow
10:02 AM 28.4 °F 22.2 °F 21.2 °F 74% 29.89 in 4.0 mi NE 5.8 mph - 0.00 in Snow Light Snow
10:52 AM 28.9 °F 25.2 °F 21.9 °F 75% 29.96 in 3.0 mi Variable 3.5 mph - 0.00 in Snow Light Snow
11:29 AM 30.2 °F - 24.8 °F 80% 29.88 in 10.0 mi Calm Calm - 0.00 in   Mostly Cloudy
11:52 AM 32.0 °F - 25.0 °F 75% 29.90 in 10.0 mi Calm Calm - 0.00 in   Overcast
12:12 PM 33.8 °F 28.6 °F 26.6 °F 75% 29.86 in 10.0 mi South 5.8 mph - N/A   Overcast
12:27 PM 33.8 °F 28.6 °F 24.8 °F 70% 29.86 in 10.0 mi SSW 5.8 mph - N/A   Overcast
12:52 PM 33.1 °F 27.7 °F 24.1 °F 70% 29.88 in 10.0 mi SSW 5.8 mph - N/A   Overcast
1:52 PM 35.1 °F 30.1 °F 24.1 °F 64% 29.85 in 10.0 mi SSE 5.8 mph - N/A   Overcast
2:52 PM 37.0 °F 29.8 °F 27.0 °F 67% 29.84 in 10.0 mi ENE 10.4 mph - N/A   Overcast
3:12 PM 35.6 °F 29.9 °F 26.6 °F 70% 29.83 in 3.0 mi NNE 6.9 mph - 0.00 in Snow Light Snow
3:30 PM 35.6 °F 30.7 °F 24.8 °F 65% 29.83 in 9.0 mi North 5.8 mph - 0.00 in   Overcast
3:52 PM 37.0 °F 31.6 °F 23.0 °F 57% 29.82 in 10.0 mi North 6.9 mph - 0.00 in   Overcast
4:52 PM 37.0 °F 33.3 °F 21.9 °F 54% 29.81 in 10.0 mi WSW 4.6 mph - N/A   Overcast
5:52 PM 37.9 °F 32.1 °F 21.9 °F 53% 29.81 in 10.0 mi SW 8.1 mph - N/A   Overcast
6:52 PM 37.0 °F 30.4 °F 24.1 °F 59% 29.82 in 10.0 mi SW 9.2 mph - N/A   Partly Cloudy
7:52 PM 33.1 °F 26.1 °F 26.1 °F 75% 29.88 in 10.0 mi WSW 8.1 mph - N/A   Clear
8:52 PM 34.0 °F 28.0 °F 28.0 °F 79% 29.89 in 10.0 mi NNW 6.9 mph - N/A   Overcast
9:52 PM 30.9 °F 19.1 °F 15.1 °F 52% 29.92 in 10.0 mi NNW 18.4 mph 24.2 mph N/A   Overcast
10:52 PM 30.0 °F 18.3 °F 12.9 °F 49% 29.92 in 10.0 mi NNW 17.3 mph 26.5 mph N/A   Clear
11:52 PM 27.0 °F 16.1 °F 10.9 °F 51% 29.93 in 10.0 mi North 12.7 mph - N/A   Clear